Live-Position
3D-Globus wird geladen...
Über OneWeb SL0025
Group: 3 satellites
Beschreibung wird geladen...
Nächste Überflüge
Passes for default location (London). Set your location on the main map for personalized predictions.
Höhenverlauf
Loading altitude history...
No altitude history available
Zweizeiliger Elementsatz
1 45138U 20008H 26123.75644367 .00000392 00000-0 10913-2 0 9997
2 45138 87.8870 45.0829 0002205 44.7348 315.3956 13.10081556302757
Epoch: 3. Mai 2026 •
Age: 6 hours
Aktueller Status
Höhe 1226.2 km
Geschwindigkeit 7.24 km/s
Subsatellitenpunkt 21.98°N,
4.59°W
Startdatum 6. Feb. 2020
Alter 6.2 years
Typ internet
Startgruppe
Unknown Vehicle •
OneWeb Launch 2 •
34 satellites
OneWeb SL0013
45131
OneWeb SL0017 45132
OneWeb SL0020 45133
OneWeb SL0021 45134
OneWeb SL0022 45135
OneWeb SL0023 45136
OneWeb SL0024 45137
OneWeb SL0026 45139
OneWeb SL0028 45140
OneWeb SL0032 45141
OneWeb SL0033 45142
OneWeb SL0035 45143
OneWeb SL0036 45144
OneWeb SL0038 45145
OneWeb SL0039 45146
OneWeb SL0040 45147
OneWeb SL0041 45148
OneWeb SL0043 45149
OneWeb SL0044 45150
OneWeb SL0045 45151
...and 13 more
Technische Details
Klassifizierung Payload
Masse 148.00 kg
Trockenmasse 140.00 kg
Gesamtmasse 148.00 kg
Länge 1.30 m
Durchmesser 1.00 m
Spannweite 5.00 m
Form Trapezoid+2 pan
Hersteller ONEWUS
Bus-Typ ARROW
Phasenstatus In Orbit
Besitzer/Staat ONEWEB/UK
Most Searched
Loading...